User: anonymous   Login
Location: Unspecified
(0.0000°N, 0.0000°E)
Time: 00:35:02
(UTC+00:00)
Language:

GGSE 2 - Orbit

View from above orbital plane
View from above orbital plane
View from above satellite
View from above satellite

Ground track
Ground track

The orbit data is extracted from the following two-line orbital elements,

1  1244U 65016B   18265.56622345 -.00000023 +00000-0 +21272-4 0  9998
2  1244 070.0779 079.7963 0022036 208.7843 151.2048 13.95615649723966
Epoch (UTC): 22 September 2018 13:35:21
Eccentricity: 0.0022036
inclination: 70.0779°
perigee height: 893 km
apogee height: 925 km
right ascension of ascending node: 79.7963°
argument of perigee: 208.7843°
revolutions per day: 13.95615649
mean anomaly at epoch: 151.2048°
orbit number at epoch: 72396

The dashed part of the orbit path shows where the satellite is in the earth's shadow,  

DLR